STARLINK-34582

Last updated on Fri Aug 08 2025 00:02:05 GMT+0000 (Coordinated Universal Time)

1 64781U 25147AC 25218.91668981 .00035616 00000+0 64603-3 0 9993 2 64781 53.1597 163.0411 0001250 90.3058 178.4586 15.49285637 5821
UTC large
Height (km)
Speed (km/s)
/
Latitude / Longitude
Inclination (degrees)
Orbital Period (minutes)
Azimuth
Elevation
Range (km)
Doppler Factor

Next 0 passes for location: London (51.5072 / 0.1276)

Sorry there are no passes over London.
STARLINK-34582